Location: Brunsbüttel
(52.3892°N, 10.6138°E)
Time: 00:38:01
(UTC+00:00)

ARIANE 6 FM1 Upper Stage - Pass Details

Date: 19 May 2025
Orbit: 530 x 611 km, 62.0° (Epoch: 22 June)

Event Time Altitude Azimuth Distance (km) Brightness Sun altitude
Rises 20:19:06 0° 218° (SW) 2,662 6.0 -8.3°
Reaches altitude 10° 20:21:18 10° 215° (SW) 1,777 5.1 -8.5°
Maximum altitude 20:25:14 63° 134° (SE) 598 2.5 -8.9°
Drops below altitude 10° 20:29:14 10° 53° (NE) 1,805 5.2 -9.3°
Sets 20:31:28 0° 51° (NE) 2,710 6.2 -9.5°
